User: anonymous   Login
Location: Unspecified
(0.0000°N, 0.0000°E)
Time: 15:29:41
(UTC+00:00)
Language:

MUNIN - Orbit

View from above orbital plane
View from above orbital plane
View from above satellite
View from above satellite

Ground track
Ground track

The orbit data is extracted from the following two-line orbital elements,

1 26621U 00075C   17228.57015571 -.00000803  00000-0 -71794-3 0  9994
2 26621  95.3982 256.1498 0711682 281.6516  70.5628 13.04143858796360
Epoch (UTC): 16 August 2017 13:41:01
Eccentricity: 0.0711682
inclination: 95.3982°
perigee height: 703 km
apogee height: 1788 km
right ascension of ascending node: 256.1498°
argument of perigee: 281.6516°
revolutions per day: 13.04143858
mean anomaly at epoch: 70.5628°
orbit number at epoch: 79636

The dashed part of the orbit path shows where the satellite is in the earth's shadow,  

DLR